Lexington Weather

Lexington, Massachusetts, USA

40°F
4/22/2024 7:51am 
  • Lexington Conditions: Clear
  • Temperature: 39.9°F / 4.4°CWarmer 2.9°F than last hour.
  • Dew Point: 28.8°FDecreased 0.1°Fsince last hour.
  • Relative Humidity: 64%Decreased 8.0% since last hour.
  • Wind: Calm, 10-min avg: Calm, gust: 2 mph
  • Barometer: 29.95 inRising 0.02  inHg/hr Rising Slowly
  • Visibility: 10 miles
  • Rain Today: 0.00 in
  •   

Regional Weather Roundup
for Boston, MA

        
000
ASUS41 KBOX 211610
RWRBOX

REGIONAL WEATHER ROUNDUP
NATIONAL WEATHER SERVICE BOSTON/NORTON MA
1200 PM EDT SUN APR 21 2024

NOTE:  "FAIR" INDICATES FEW OR NO CLOUDS BELOW 12,000 FEET WITH NO 
SIGNIFICANT WEATHER AND/OR OBSTRUCTIONS TO VISIBILITY.

MAZALL-211700-
EASTERN MASSACHUSETTS
  
CITY           SKY/WX    TMP DP  RH WIND       PRES   REMARKS
BOSTON         PTSUNNY   52  27  38 W9        29.93F                  
BEVERLY        SUNNY     50  28  42 VRB6      29.92S                  
LAWRENCE       SUNNY     52  27  38 SW12G23   29.93F                  
BEDFORD        SUNNY     51  27  39 W10       29.92F                  
NORWOOD        SUNNY     53  28  38 W9        29.94F                  
MARSHFIELD     MOSUNNY   48  32  53 VRB5      29.94F                  
PLYMOUTH       MOSUNNY   51  28  41 SW14G20   29.94F                  
TAUNTON        MOSUNNY   53  29  39 W6G18     29.95F                  
NEW BEDFORD    MOSUNNY   51  28  41 SW10      29.95F                  
$$

MAZALL-211700-
CAPE COD AND THE ISLANDS
  
CITY           SKY/WX    TMP DP  RH WIND       PRES   REMARKS
FALMOUTH       SUNNY     48  28  46 SW10      29.96F                  
HYANNIS        SUNNY     47  30  51 S8        29.95F                  
CHATHAM        SUNNY     48  32  53 SW7       29.96F                  
PROVINCETOWN   SUNNY     47  33  58 W6        29.96F                  
NANTUCKET      SUNNY     50  33  52 SW12      29.97S                  
MARTHAS VNYRD  SUNNY     50  33  52 SW9       29.97S                  
$$
 
MAZALL-211700-
CENTRAL AND WESTERN MASSACHUSETTS
  
CITY           SKY/WX    TMP DP  RH WIND       PRES   REMARKS
WORCESTER      SUNNY     46  22  38 W13G24    29.93S                  
FITCHBURG      SUNNY     51  23  33 SW14G20   29.93F                  
ORANGE         PTSUNNY   48  24  39 NW13      29.94F                  
SPRINGFIELD    PTSUNNY   49  23  36 W10       29.93F                  
WESTFIELD      PTSUNNY   50  25  37 NW9       29.96F                  
NORTH ADAMS    CLOUDY    44  24  45 W10G20    29.96F                  
PITTSFIELD     CLOUDY    43  23  45 W12G22    29.94F                  
$$
 
RIZALL-211700-
RHODE ISLAND
  
CITY           SKY/WX    TMP DP  RH WIND       PRES   REMARKS
PROVIDENCE     CLOUDY    50  27  40 SW13G21   29.97F                  
NEWPORT        SUNNY     48  34  58 S10G17    29.97S                  
BLOCK ISLAND   MOSUNNY   46  32  58 W12       30.00F                  
SMITHFIELD     SUNNY     50  26  39 VRB6      29.95F                  
WESTERLY       MOSUNNY   49  28  44 SW12      29.98F                  
$$
 
CTZALL-211700-
CONNECTICUT
  
CITY           SKY/WX    TMP DP  RH WIND       PRES   REMARKS
BRADLEY INTL   CLOUDY    51  24  34 W6G18     29.97F                  
HARTFORD       PTSUNNY   50  26  39 W9        29.98F                  
PLAINVILLE     FAIR      49  22  34 SW8       29.98F                  
BRIDGEPORT     MOSUNNY   49  28  44 SW15      30.01F                  
DANBURY        PTSUNNY   49  26  41 SW9       30.00F                  
GROTON         MOSUNNY   49  33  54 SW15      29.98F                  
NEW HAVEN      MOSUNNY   51  30  44 SW9       30.00F                  
CHESTER        MOSUNNY   50  23  34 VRB7G13   29.98F                  
MERIDEN        PTSUNNY   49  22  34 CALM      29.99F                  
WILLIMANTIC    MOSUNNY   48  24  39 W10G18    29.97F                  
OXFORD         MOSUNNY   46  25  43 W12       29.99F                  
$$

MEZ002-015-021-024-NHZ003-005-008-011-012-014-VTZ005-008-211700-
NORTHERN NEW ENGLAND
  
CITY           SKY/WX    TMP DP  RH WIND       PRES   REMARKS
PORTLAND ME    PTSUNNY   51  32  48 SE14      29.87F                  
BANGOR ME      PTSUNNY   54  32  43 S7        29.84F                  
CONCORD NH     PTSUNNY   52  25  35 W13G26    29.90F                  
MANCHESTER NH  PTSUNNY   52  23  32 W9        29.89F                  
NASHUA NH      PTSUNNY   52  24  33 S8        29.91F                  
PORTSMOUTH NH  PTSUNNY   53  26  34 W8        29.89F                  
JAFFREY NH     MOSUNNY   49  22  34 MISG      29.90F                  
KEENE NH       PTSUNNY   48  21  34 N12G20    29.92F                  
BURLINGTON VT  CLOUDY    47  23  38 W10G16    29.91F                  
MT. WASHINGTON NOT AVBL                                               
$$

NYZ052-076-211700-
EASTERN NEW YORK
  
CITY           SKY/WX    TMP DP  RH WIND       PRES   REMARKS
ALBANY         PTSUNNY   48  25  40 SW7       29.99F                  
NEW YORK CITY  CLOUDY    49  25  39 W12G17    30.03F                  
$$
 
ANZALL-211700-
MARINE OBSERVATIONS
  
STATION/POSITION TIME  TEMP    WIND        PRES    VSBY  WAVE
                       AIR SEA DIR/SP/G                  HT/PER
                 (UTC) (F)     (DEG/KT/KT) (MB)    (MI)  (FT/S)
BOSTON BUOY      1550   45     250/  4/  6 1013.2F         1/ 8
BUZZARDS BAY     1500   44     240/  6/  6 1015.9F
NANTUCKET SOUND  1550   46 48  230/  4/  6 1014.2F         1
MASS BAY-STELLWA 1404   45 46  260/  8/ 10 1014.4F  1 7/8  2/ 8
ISLE OF SHOALS   1500   45     220/  5/  5 1012.9F
S OF BLOCK IS    1556      45                N/A           2/ 8
$$

......................KEY.........................
  SKY/WX - SKY CONDITION/PRESENT WEATHER
  TMP    - TEMPERATURE IN FAHRENHEIT
  DWPT   - DEWPOINT IN FAHRENHEIT
  RH     - RELATIVE HUMIDITY IN PERCENT
  WIND   - DIRECTION AND SPEED IN MPH
  PRES   - MEAN SEA LEVEL PRESSURE IN INCHES OF HG
  WCI    - WIND CHILL INDEX
  VSB    - VISIBILITY IN MILES
  HX     - HEAT INDEX
  TC     - TEMPERATURE IN CELSIUS
  VRB    - VARIABLE WIND DIRECTION
  N/A    - NOT AVAILABLE
  
      

Other recent Regional Weather Roundups

Mon Apr 22, 7:10am EDT

Mon Apr 22, 6:10am EDT

Mon Apr 22, 5:10am EDT

Mon Apr 22, 4:10am EDT

Mon Apr 22, 3:10am EDT

Mon Apr 22, 2:10am EDT

Mon Apr 22, 1:10am EDT

Mon Apr 22, 12:10am EDT

Sun Apr 21, 11:10pm EDT

Sun Apr 21, 10:10pm EDT

Sun Apr 21, 9:10pm EDT

Sun Apr 21, 8:10pm EDT

Sun Apr 21, 7:10pm EDT

Sun Apr 21, 6:10pm EDT

Sun Apr 21, 5:10pm EDT

Sun Apr 21, 4:10pm EDT

Sun Apr 21, 3:10pm EDT

Sun Apr 21, 2:10pm EDT

Sun Apr 21, 1:10pm EDT

Sun Apr 21, 11:10am EDT

Sun Apr 21, 10:10am EDT

Sun Apr 21, 9:10am EDT

Sun Apr 21, 8:10am EDT

Sun Apr 21, 7:10am EDT

Sun Apr 21, 6:10am EDT

Sun Apr 21, 5:10am EDT

Sun Apr 21, 4:10am EDT

Sun Apr 21, 3:10am EDT

Sun Apr 21, 2:10am EDT

Sun Apr 21, 1:10am EDT

Sun Apr 21, 12:10am EDT

Sat Apr 20, 11:10pm EDT

Sat Apr 20, 10:10pm EDT

Sat Apr 20, 9:10pm EDT

Sat Apr 20, 8:10pm EDT

Sat Apr 20, 7:10pm EDT

Sat Apr 20, 6:10pm EDT

Sat Apr 20, 5:10pm EDT

Sat Apr 20, 4:10pm EDT

Sat Apr 20, 3:10pm EDT

Sat Apr 20, 2:10pm EDT

Sat Apr 20, 1:10pm EDT

Sat Apr 20, 12:10pm EDT

Sat Apr 20, 11:10am EDT

Sat Apr 20, 10:10am EDT

Sat Apr 20, 9:10am EDT

Sat Apr 20, 8:10am EDT

Sat Apr 20, 7:10am EDT

Sat Apr 20, 6:10am EDT

Sat Apr 20, 5:10am EDT

Sat Apr 20, 4:10am EDT

Sat Apr 20, 3:10am EDT

Sat Apr 20, 2:10am EDT

Sat Apr 20, 1:10am EDT

Sat Apr 20, 12:10am EDT

Fri Apr 19, 11:10pm EDT

Fri Apr 19, 10:10pm EDT

Fri Apr 19, 9:10pm EDT

Fri Apr 19, 8:10pm EDT

Fri Apr 19, 7:10pm EDT

Fri Apr 19, 6:10pm EDT

Fri Apr 19, 5:10pm EDT

Fri Apr 19, 4:10pm EDT

Fri Apr 19, 3:10pm EDT

Fri Apr 19, 2:10pm EDT

Fri Apr 19, 1:10pm EDT

Fri Apr 19, 12:10pm EDT

Fri Apr 19, 11:10am EDT

Fri Apr 19, 10:10am EDT

Fri Apr 19, 9:10am EDT

Fri Apr 19, 8:10am EDT

Fri Apr 19, 7:10am EDT

Fri Apr 19, 6:10am EDT

Fri Apr 19, 5:10am EDT

Fri Apr 19, 4:10am EDT

Fri Apr 19, 3:10am EDT

Fri Apr 19, 2:10am EDT

Fri Apr 19, 1:10am EDT

Fri Apr 19, 12:10am EDT

Thu Apr 18, 11:10pm EDT

Thu Apr 18, 10:10pm EDT

Thu Apr 18, 9:10pm EDT

Thu Apr 18, 8:10pm EDT

Thu Apr 18, 7:10pm EDT

Thu Apr 18, 6:10pm EDT

Thu Apr 18, 5:10pm EDT

Thu Apr 18, 4:10pm EDT

Thu Apr 18, 3:10pm EDT

Thu Apr 18, 2:10pm EDT

Thu Apr 18, 1:10pm EDT

Thu Apr 18, 12:10pm EDT

Thu Apr 18, 11:10am EDT

Thu Apr 18, 10:10am EDT

Thu Apr 18, 9:10am EDT

Thu Apr 18, 8:10am EDT

Thu Apr 18, 7:10am EDT

Thu Apr 18, 6:10am EDT

Thu Apr 18, 5:10am EDT

Thu Apr 18, 4:10am EDT

Thu Apr 18, 3:10am EDT

Thu Apr 18, 2:10am EDT

Thu Apr 18, 1:10am EDT

Thu Apr 18, 12:10am EDT

Wed Apr 17, 11:10pm EDT

Wed Apr 17, 10:10pm EDT

Wed Apr 17, 9:10pm EDT

Wed Apr 17, 8:10pm EDT

Wed Apr 17, 7:10pm EDT

Wed Apr 17, 6:10pm EDT

Wed Apr 17, 5:10pm EDT

Wed Apr 17, 4:10pm EDT

Wed Apr 17, 3:10pm EDT

Wed Apr 17, 2:10pm EDT

Wed Apr 17, 1:10pm EDT

Wed Apr 17, 12:10pm EDT

Wed Apr 17, 11:10am EDT

Wed Apr 17, 10:10am EDT

Wed Apr 17, 9:10am EDT

Wed Apr 17, 8:10am EDT

Wed Apr 17, 7:10am EDT

Wed Apr 17, 6:10am EDT

Wed Apr 17, 5:10am EDT

Wed Apr 17, 4:10am EDT

Wed Apr 17, 3:10am EDT

Wed Apr 17, 2:10am EDT

Wed Apr 17, 1:10am EDT

Wed Apr 17, 12:10am EDT

Tue Apr 16, 11:10pm EDT

Tue Apr 16, 10:10pm EDT

Tue Apr 16, 9:10pm EDT

Tue Apr 16, 8:10pm EDT

Tue Apr 16, 7:10pm EDT

Tue Apr 16, 6:10pm EDT

Tue Apr 16, 5:10pm EDT

Tue Apr 16, 4:10pm EDT

Tue Apr 16, 3:10pm EDT

Tue Apr 16, 2:10pm EDT

Tue Apr 16, 1:10pm EDT

Tue Apr 16, 12:10pm EDT

Tue Apr 16, 11:10am EDT

Tue Apr 16, 10:10am EDT

Tue Apr 16, 9:10am EDT

Tue Apr 16, 8:10am EDT

Tue Apr 16, 7:10am EDT

Tue Apr 16, 6:10am EDT

Tue Apr 16, 5:10am EDT

Tue Apr 16, 4:10am EDT

Tue Apr 16, 3:10am EDT

Tue Apr 16, 2:10am EDT

Tue Apr 16, 1:10am EDT

Tue Apr 16, 12:10am EDT

Mon Apr 15, 11:10pm EDT

Mon Apr 15, 10:10pm EDT

Mon Apr 15, 9:10pm EDT

Mon Apr 15, 8:10pm EDT

Mon Apr 15, 7:10pm EDT

Mon Apr 15, 6:10pm EDT

Mon Apr 15, 5:10pm EDT

Mon Apr 15, 4:10pm EDT

Mon Apr 15, 3:10pm EDT

Mon Apr 15, 2:10pm EDT

Mon Apr 15, 1:10pm EDT

Mon Apr 15, 12:10pm EDT

Mon Apr 15, 11:10am EDT

Mon Apr 15, 10:10am EDT

Mon Apr 15, 9:10am EDT

Mon Apr 15, 8:10am EDT